User: anonymous   Login
Location: Goodsell Observatory
(44.4617°N, 93.1522°W)
Time: 11:21:29
(UTC-06:00)
Language:

Hubble Space Telescope - Orbit

View from above orbital plane
View from above orbital plane
View from above satellite
View from above satellite

Ground track
Ground track

The orbit data is extracted from the following two-line orbital elements,

1 20580U 90037B   14355.03729206  .00005505  00000-0  35214-3 0  1839
2 20580 028.4698 248.0901 0003098 122.1502 011.8224 15.06472915152917
Epoch (UTC): 21 December 2014 00:53:42
Eccentricity: 0.0003098
inclination: 28.4698°
perigee height: 545 km
apogee height: 549 km
right ascension of ascending node: 248.0901°
argument of perigee: 122.1502°
revolutions per day: 15.06472915
mean anomaly at epoch: 11.8224°
orbit number at epoch: 15291

The dashed part of the orbit path shows where the satellite is in the earth's shadow,  

DLR